TimeCST,TemperatureF,Dew PointF,Humidity,Sea Level PressureIn,VisibilityMPH,Wind Direction,Wind SpeedMPH,Gust SpeedMPH,PrecipitationIn,Events,Conditions,WindDirDegrees,DateUTC
12:16 AM,32.0,30.2,93,29.49,7.0,WNW,10.4,-,N/A,,Overcast,290,2014-01-11 06:16:00
12:52 AM,32.0,30.0,92,29.50,8.0,WNW,10.4,-,N/A,,Overcast,300,2014-01-11 06:52:00
1:52 AM,32.0,30.0,92,29.52,8.0,WNW,13.8,-,N/A,,Overcast,300,2014-01-11 07:52:00
2:52 AM,32.0,28.9,88,29.52,8.0,WNW,11.5,-,N/A,,Overcast,300,2014-01-11 08:52:00
3:09 AM,32.0,28.4,87,29.50,7.0,WNW,12.7,-,N/A,,Overcast,300,2014-01-11 09:09:00
3:23 AM,32.0,28.4,87,29.50,7.0,WNW,15.0,-,N/A,,Overcast,290,2014-01-11 09:23:00
3:48 AM,30.2,28.4,93,29.50,7.0,WNW,16.1,-,N/A,,Overcast,300,2014-01-11 09:48:00
3:52 AM,30.9,28.0,89,29.52,7.0,WNW,16.1,-,N/A,,Overcast,300,2014-01-11 09:52:00
4:52 AM,30.9,28.9,92,29.54,8.0,WNW,18.4,21.9,N/A,,Overcast,290,2014-01-11 10:52:00
5:52 AM,30.9,28.9,92,29.55,4.0,WNW,15.0,-,N/A,,Overcast,290,2014-01-11 11:52:00
6:52 AM,30.9,28.0,89,29.57,4.0,WNW,15.0,-,N/A,,Overcast,300,2014-01-11 12:52:00
7:52 AM,30.9,28.0,89,29.59,4.0,West,10.4,-,N/A,,Overcast,280,2014-01-11 13:52:00
8:49 AM,30.2,26.6,86,29.58,5.0,WNW,13.8,-,N/A,,Overcast,290,2014-01-11 14:49:00
8:52 AM,30.9,27.0,85,29.61,5.0,WNW,11.5,-,N/A,,Overcast,290,2014-01-11 14:52:00
9:15 AM,30.2,26.6,86,29.59,4.0,West,16.1,-,N/A,,Overcast,280,2014-01-11 15:15:00
9:40 AM,28.4,24.8,86,29.59,5.0,West,15.0,-,N/A,,Scattered Clouds,270,2014-01-11 15:40:00
9:52 AM,30.0,25.0,82,29.62,6.0,West,13.8,-,N/A,,Haze,270,2014-01-11 15:52:00
10:52 AM,30.0,23.0,75,29.63,10.0,WNW,18.4,-,N/A,,Clear,300,2014-01-11 16:52:00
11:52 AM,28.9,23.0,78,29.64,10.0,WNW,16.1,-,N/A,,Clear,290,2014-01-11 17:52:00
12:34 PM,28.4,24.8,86,29.62,8.0,WNW,18.4,-,N/A,,Mostly Cloudy,300,2014-01-11 18:34:00
12:52 PM,30.0,25.0,82,29.65,8.0,WNW,18.4,-,N/A,,Overcast,300,2014-01-11 18:52:00
1:52 PM,30.0,25.0,82,29.66,9.0,WNW,23.0,27.6,N/A,,Overcast,300,2014-01-11 19:52:00
2:52 PM,28.0,23.0,81,29.70,10.0,NW,21.9,34.5,N/A,,Overcast,310,2014-01-11 20:52:00
3:52 PM,28.9,24.1,82,29.72,9.0,WNW,16.1,-,N/A,,Overcast,300,2014-01-11 21:52:00
4:52 PM,30.0,25.0,82,29.74,9.0,WNW,16.1,-,N/A,,Overcast,300,2014-01-11 22:52:00
5:52 PM,30.0,25.0,82,29.77,10.0,WNW,13.8,-,N/A,,Overcast,290,2014-01-11 23:52:00
6:45 PM,30.2,24.8,80,29.76,10.0,WNW,11.5,-,N/A,,Overcast,300,2014-01-12 00:45:00
6:52 PM,30.0,25.0,82,29.79,10.0,WNW,11.5,-,N/A,,Overcast,290,2014-01-12 00:52:00
7:52 PM,30.9,26.1,82,29.82,10.0,West,13.8,-,N/A,,Overcast,280,2014-01-12 01:52:00
8:52 PM,30.0,25.0,82,29.84,10.0,WNW,11.5,-,N/A,,Overcast,290,2014-01-12 02:52:00
8:54 PM,30.2,24.8,80,29.81,10.0,WNW,10.4,-,N/A,,Overcast,290,2014-01-12 02:54:00
9:52 PM,26.1,23.0,88,29.83,10.0,WSW,3.5,-,N/A,,Overcast,250,2014-01-12 03:52:00
10:36 PM,26.6,23.0,86,29.82,10.0,SW,6.9,-,N/A,,Overcast,230,2014-01-12 04:36:00
10:52 PM,28.0,24.1,85,29.85,8.0,WSW,10.4,-,N/A,,Overcast,240,2014-01-12 04:52:00
11:33 PM,24.8,21.2,86,29.82,8.0,SW,8.1,-,N/A,,Scattered Clouds,220,2014-01-12 05:33:00
11:52 PM,25.0,21.9,88,29.85,8.0,SSW,6.9,-,N/A,,Clear,210,2014-01-12 05:52:00